Sault Ste Marie, MI

4:45 PM EST on January 17, 2017 (GMT -0500)
Sault Ste Marie Municipal / Sanderson Field

Weather History for KANJ - January, 2012

Change the Weather History Date:

Saturday, January 14, 2012

  Actual Average Record
Temperature  
Mean Temperature 0 °F 15 °F  
Max Temperature 9 °F 23 °F 43 °F (1932)
Min Temperature -9 °F 7 °F -27 °F (1965)
Degree Days  
Heating Degree Days 65 50  
Month to date heating degree days 594 688  
Since 1 July heating degree days 3286 3947  
Moisture  
Dew Point -9 °F    
Average Humidity 58    
Maximum Humidity 78    
Minimum Humidity 37    
Precipitation  
Precipitation 0.00 in 0.07 in 1.16 in (1940)
Month to date precipitation 1.44 1.07  
Year to date precipitation 1.44 1.07  
Snow  
Snow 0.00 in 1.00 in 6.60 in (1972)
Month to date snowfall 18.4 14.7  
Since 1 July snowfall 35.4 64.9  
Snow Depth 0.00 in    
Sea Level Pressure  
Sea Level Pressure 30.19 in    
Wind  
Wind Speed 2 mph (ENE)    
Max Wind Speed 8 mph    
Max Gust Speed 10 mph    
Visibility 10 miles    
Events      
T = Trace of Precipitation, MM = Missing Value Source: NWS Daily Summary

Daily Weather History Graph

Daily Weather History Graph

Search for Another Location

Airport or City:

Trip Planner

Search our weather history database for the weather conditions in past years. The results will help you decide how hot, cold, wet, or windy it might be!

Date:

Astronomy

Jan. 14, 2012 Rise Set
Actual Time 8:17 AM EST 5:15 PM EST
Civil Twilight 7:43 AM EST 5:49 PM EST
Nautical Twilight 7:06 AM EST 6:26 PM EST
Astronomical Twilight 6:30 AM EST 7:02 PM EST
Moon No Moon Rise 10:38 AM EST (1/14)
Length of Visible Light 10h 05m
Length of Day
8h 57m
Waning Gibbous, 69% of the Moon is Illuminated
Jan 14
Waning Gibbous
Jan 16
Last Quarter
Jan 23
New
Jan 30
First Quarter
Feb 7
Full

Hourly Weather History & Observations

Time (EST) Temp. Windchill Dew Point Humidity Pressure Visibility Wind Dir Wind Speed Gust Speed Precip Events Conditions
12:55 AM -0.0 °F - -11.9 °F 57% 30.02 in 10.0 mi Calm Calm - N/A   Clear
1:55 AM -6.0 °F - -13.0 °F 72% 30.05 in 10.0 mi Calm Calm - N/A   Clear
2:55 AM -7.1 °F - -13.0 °F 75% 30.08 in 10.0 mi Calm Calm - N/A   Clear
3:55 AM -6.0 °F -16.9 °F -14.1 °F 68% 30.09 in 10.0 mi NW 4.6 mph - N/A   Clear
4:55 AM -6.0 °F -14.7 °F -11.9 °F 75% 30.10 in 9.0 mi NNW 3.5 mph - N/A   Clear
5:55 AM -5.1 °F -17.6 °F -13.0 °F 69% 30.12 in 10.0 mi North 5.8 mph - N/A   Clear
6:55 AM -4.0 °F -14.6 °F -11.0 °F 72% 30.14 in 10.0 mi NNE 4.6 mph - N/A   Partly Cloudy
7:55 AM -5.1 °F -17.6 °F -11.9 °F 72% 30.15 in 10.0 mi East 5.8 mph - N/A   Partly Cloudy
8:55 AM -4.0 °F -14.6 °F -9.9 °F 76% 30.19 in 10.0 mi East 4.6 mph - N/A   Clear
9:55 AM -2.0 °F -12.2 °F -9.0 °F 72% 30.22 in 10.0 mi East 4.6 mph - N/A   Clear
10:55 AM 1.9 °F -7.6 °F -9.0 °F 60% 30.22 in 10.0 mi ENE 4.6 mph - 0.00 in   Clear
11:55 AM 3.9 °F -3.4 °F -9.0 °F 55% 30.20 in 10.0 mi ENE 3.5 mph - 0.00 in   Clear
12:55 PM 6.1 °F -0.9 °F -13.0 °F 41% 30.19 in 10.0 mi East 3.5 mph - 0.00 in   Clear
1:55 PM 8.1 °F - -13.0 °F 38% 30.19 in 10.0 mi Calm Calm - N/A   Clear
2:55 PM 8.1 °F 1.4 °F -11.9 °F 40% 30.20 in 10.0 mi South 3.5 mph - N/A   Clear
3:55 PM 7.0 °F - -11.0 °F 44% 30.22 in 10.0 mi Calm Calm - N/A   Clear
4:55 PM 6.1 °F - -9.9 °F 48% 30.22 in 10.0 mi Calm Calm - N/A   Partly Cloudy
5:55 PM 6.1 °F - -8.0 °F 53% 30.23 in 10.0 mi Calm Calm - N/A   Partly Cloudy
6:55 PM 8.1 °F - -7.1 °F 50% 30.25 in 10.0 mi Calm Calm - N/A   Overcast
7:55 PM 8.1 °F - -4.0 °F 58% 30.27 in 10.0 mi Calm Calm - N/A   Overcast
8:55 PM 8.1 °F - -2.9 °F 61% 30.28 in 10.0 mi Calm Calm - N/A   Overcast
9:55 PM 7.0 °F 0.1 °F -0.0 °F 73% 30.28 in 8.0 mi East 3.5 mph - N/A   Overcast
10:55 PM 6.1 °F -0.9 °F -0.9 °F 73% 30.29 in 10.0 mi East 3.5 mph - N/A   Overcast
11:55 PM 6.1 °F -0.9 °F -0.9 °F 73% 30.29 in 10.0 mi ENE 3.5 mph - N/A   Overcast